Main page
Satellite images Climate Cyclones Lightning AirportsFAQ Languages Contact Newsletter About
Weather : Europe Africa North America South America Asia Australia-Oceania Others

5361, Hat Yai, Hat Yai International Airport

latitude: , longitude: Thailand, elevation: 06-55N m


METAR: VTSS 211700Z 20003KT 9999 -RA FEW020 SCT028 BKN100 24/23 Q1009 NOSIG